Home   Weather   Tiruchirappalli   Past weeks

Flag for India Past Weather in Tiruchirappalli, Tamil Nadu, India — Yesterday and Last 2 Weeks

Now
84 °F

Passing clouds.


Feels Like: 90 °F
Forecast: 76 / 96 °F
Wind: 3 mph from North

Location: Tiruchchirapalli

Current Time: Oct 2, 2016 at 12:28:53 AM

Latest Report: Oct 2, 2016 at 12:00 AM


Visibility: 4 mi

Pressure: 29.77 "Hg

Humidity: 66%

Dew Point: 72 °F

Location of TiruchirappalliLocation

Past Weather in Tiruchirappalli — Graph

°F

Tiruchirappalli Temperature Yesterday

Maximum temperature yesterday: 100 °F (at 3:00 PM)
Minimum temperature yesterday: 81 °F (at 3:30 AM)
Average temperature yesterday: 88 °F

High & Low Weather Summary for the Past Weeks

 TemperatureHumidityPressure
High100 °F (Sep 18, 3:30 PM)94% (Sep 29, 11:00 PM)29.83 "Hg (Sep 29, 11:00 PM)
Low79 °F (Sep 17, 6:00 AM)31% (Sep 18, 3:30 PM)29.53 "Hg (Sep 18, 9:30 AM)
Average88 °F55%29.70 "Hg
* Reported Sep 16 11:30 PM — Oct 1 11:30 PM, Tiruchirappalli, Weather by CustomWeather, © 2016

Note: Actual official high and low records may vary slightly from our data, if they occured in-between our weather recording intervals... More about our weather records

Advertising

Tiruchirappalli Weather History for the Previous 24 Hours

Scroll right to see more
 ConditionsComfort  
Time TempWeatherWind HumidityBarometerVisibility
11:30 PM
Sat, Oct 1
84 °FPassing clouds.2 mph66%29.77 "Hg4 mi
11:00 PM84 °FPassing clouds.6 mph66%29.77 "Hg4 mi
10:30 PM86 °FPassing clouds.8 mph62%29.77 "Hg4 mi
10:00 PM86 °FPassing clouds.8 mph66%29.77 "Hg4 mi
9:30 PM86 °FPassing clouds.8 mph66%29.77 "Hg4 mi
9:00 PM86 °FPassing clouds.8 mph66%29.74 "Hg4 mi
8:35 PM88 °FWarm.No wind62%29.74 "HgN/A
8:30 PM88 °FPassing clouds.8 mph62%29.74 "Hg4 mi
8:00 PM90 °FPassing clouds.12 mph59%29.71 "Hg4 mi
7:30 PM90 °FPassing clouds.12 mph59%29.71 "Hg4 mi
7:00 PM91 °FPassing clouds.12 mph59%29.68 "Hg4 mi
6:30 PM91 °FScattered clouds.13 mph56%29.65 "Hg4 mi
6:00 PM93 °FScattered clouds.12 mph49%29.65 "Hg4 mi
5:30 PM95 °FScattered clouds.6 mph39%29.65 "Hg4 mi
5:00 PM97 °FScattered clouds.7 mph34%29.62 "HgN/A
4:30 PM99 °FScattered clouds.8 mph33%29.62 "HgN/A
4:00 PM100 °FScattered clouds.8 mph31%29.62 "HgN/A
3:30 PM100 °FPassing clouds.8 mph31%29.62 "HgN/A
3:00 PM100 °FPassing clouds.9 mph31%29.62 "HgN/A
2:30 PM99 °FPassing clouds.12 mph37%29.62 "HgN/A
2:00 PM97 °FPassing clouds.12 mph44%29.65 "Hg5 mi
1:30 PM97 °FPassing clouds.14 mph44%29.65 "Hg5 mi
1:00 PM95 °FPassing clouds.14 mph47%29.68 "Hg4 mi
12:30 PM95 °FPassing clouds.16 mph47%29.68 "Hg4 mi
12:00 PM95 °FPassing clouds.14 mph47%29.71 "Hg4 mi
11:30 AM93 °FPassing clouds.16 mph39%29.71 "Hg4 mi
11:00 AM90 °FPassing clouds.14 mph52%29.74 "Hg4 mi
10:30 AM88 °FPassing clouds.14 mph55%29.74 "Hg4 mi
10:00 AM88 °FScattered clouds.14 mph55%29.74 "Hg4 mi
9:30 AM86 °FPassing clouds.12 mph59%29.74 "Hg4 mi
9:00 AM84 °FPassing clouds.14 mph66%29.74 "Hg4 mi
8:30 AM84 °FPassing clouds.14 mph70%29.74 "Hg4 mi
8:00 AM82 °FPassing clouds.14 mph74%29.74 "Hg4 mi
7:30 AM81 °FPassing clouds.14 mph70%29.74 "Hg4 mi
7:00 AM81 °FPassing clouds.14 mph62%29.71 "Hg4 mi
6:30 AM81 °FPassing clouds.14 mph62%29.71 "Hg4 mi
6:00 AM81 °FPassing clouds.12 mph66%29.71 "Hg4 mi
5:30 AM81 °FPassing clouds.14 mph66%29.68 "Hg4 mi
5:00 AM81 °FPassing clouds.12 mph62%29.68 "Hg4 mi
4:30 AM81 °FPassing clouds.7 mph62%29.68 "Hg4 mi
4:00 AM81 °FPassing clouds.12 mph62%29.65 "Hg4 mi
3:30 AM81 °FPassing clouds.9 mph62%29.65 "Hg4 mi
3:00 AM82 °FPassing clouds.9 mph58%29.65 "Hg4 mi
2:30 AM82 °FPassing clouds.12 mph58%29.68 "Hg4 mi
2:00 AM82 °FPassing clouds.12 mph79%29.68 "Hg4 mi
1:30 AM82 °FPassing clouds.12 mph79%29.68 "Hg4 mi
1:00 AM82 °FPassing clouds.12 mph79%29.68 "Hg4 mi
12:30 AM84 °FPassing clouds.9 mph74%29.71 "Hg4 mi
12:00 AM84 °FPassing clouds.9 mph70%29.71 "Hg4 mi
Weather by CustomWeather, © 2016

See weather overviewHow to use our weather pages